TimeAST,TemperatureF,Dew PointF,Humidity,Sea Level PressureIn,VisibilityMPH,Wind Direction,Wind SpeedMPH,Gust SpeedMPH,PrecipitationIn,Events,Conditions,WindDirDegrees,DateUTC
12:00 AM,78.8,71.6,78,29.92,-9999.0,ESE,4.6,-,N/A,,Clear,120,2013-12-02 04:00:00
1:00 AM,80.6,71.6,74,29.89,6.2,SE,9.2,-,N/A,,Partly Cloudy,130,2013-12-02 05:00:00
2:00 AM,80,71,67,29.89,25,SE,10.4,,,,,130,2013-12-02 06:00:00
2:00 AM,80.6,71.6,74,29.89,6.2,SE,10.4,-,N/A,,Partly Cloudy,130,2013-12-02 06:00:00
3:00 AM,80.6,71.6,74,29.89,6.2,SE,6.9,-,N/A,,Partly Cloudy,130,2013-12-02 07:00:00
4:00 AM,80.6,71.6,74,29.89,6.2,SE,6.9,-,N/A,,Partly Cloudy,140,2013-12-02 08:00:00
5:00 AM,80,71,66,29.89,25,SE,8.1,,,,Scattered Clouds,130,2013-12-02 09:00:00
5:00 AM,80.6,71.6,74,29.89,6.2,SE,8.1,-,N/A,,Partly Cloudy,130,2013-12-02 09:00:00
6:00 AM,80.6,69.8,70,29.89,6.2,SE,9.2,-,N/A,,Partly Cloudy,130,2013-12-02 10:00:00
7:00 AM,80.6,71.6,74,29.92,6.2,ESE,4.6,-,N/A,,Partly Cloudy,110,2013-12-02 11:00:00
8:00 AM,82,72,63,29.95,44,SE,6.9,,,,Scattered Clouds,140,2013-12-02 12:00:00
8:00 AM,82.4,71.6,70,29.95,6.2,SE,6.9,-,N/A,,Partly Cloudy,140,2013-12-02 12:00:00
9:00 AM,82.4,71.6,70,29.95,6.2,SE,8.1,-,N/A,,Partly Cloudy,130,2013-12-02 13:00:00
10:00 AM,82.4,71.6,70,29.95,6.2,SE,10.4,-,N/A,,Partly Cloudy,130,2013-12-02 14:00:00
11:00 AM,83,72,62,29.95,47,SE,10.4,,,,Scattered Clouds,140,2013-12-02 15:00:00
11:00 AM,82.4,71.6,70,29.95,6.2,SE,10.4,-,N/A,,Partly Cloudy,140,2013-12-02 15:00:00
12:00 PM,82.4,73.4,74,29.92,6.2,SSE,11.5,-,N/A,,Partly Cloudy,150,2013-12-02 16:00:00
1:00 PM,82.4,73.4,74,29.89,6.2,SE,12.7,-,N/A,,Partly Cloudy,140,2013-12-02 17:00:00
2:00 PM,83,73,64,29.88,44,SE,10.4,,,,Scattered Clouds,130,2013-12-02 18:00:00
2:00 PM,84.2,73.4,70,29.86,6.2,ESE,10.4,-,N/A,,Partly Cloudy,120,2013-12-02 18:00:00
3:00 PM,84.2,71.6,66,29.86,6.2,SE,9.2,-,N/A,,Partly Cloudy,130,2013-12-02 19:00:00
4:00 PM,82.4,73.4,74,29.86,6.2,SE,10.4,-,N/A,,Partly Cloudy,130,2013-12-02 20:00:00
5:00 PM,82,73,67,29.91,44,SE,9.2,,,,Scattered Clouds,130,2013-12-02 21:00:00
5:00 PM,82.4,73.4,74,29.89,6.2,SE,9.2,-,N/A,,Partly Cloudy,130,2013-12-02 21:00:00
6:00 PM,80.6,73.4,79,29.89,6.2,ESE,9.2,-,N/A,,Partly Cloudy,120,2013-12-02 22:00:00
7:00 PM,80.6,73.4,79,29.92,6.2,SE,10.4,-,N/A,,Scattered Clouds,130,2013-12-02 23:00:00
8:00 PM,81,74,74,29.94,16,SE,10.4,,,Rain,Light Rain Showers,130,2013-12-03 00:00:00
8:00 PM,80.6,73.4,79,29.92,6.2,SE,10.4,-,N/A,Rain,Light Rain Showers,130,2013-12-03 00:00:00
9:00 PM,80.6,73.4,79,29.95,6.2,ESE,8.1,-,N/A,,Mostly Cloudy,120,2013-12-03 01:00:00
10:00 PM,78.8,75.2,89,29.95,6.2,SE,8.1,-,N/A,Rain,Light Rain Showers,140,2013-12-03 02:00:00
11:00 PM,79,73,76,29.98,6,East,8.1,,,Rain,Light Rain Showers,100,2013-12-03 03:00:00
11:00 PM,-9999,73.4,N/A,29.98,6.2,East,8.1,-,N/A,,Mostly Cloudy,100,2013-12-03 03:00:00